NU, Nunavut

1:24 AM AST on December 04, 2016 (GMT -0400)
Cape Dyer

Weather History for CWFD - July, 2013

Change the Weather History Date:

Thursday, July 4, 2013

  Actual Average Record
Temperature  
Mean Temperature 28 °F -  
Max Temperature 33 °F - - ()
Min Temperature 24 °F - - ()
Degree Days  
Heating Degree Days 37    
Moisture  
Dew Point -    
Average Humidity    
Maximum Humidity    
Minimum Humidity    
Precipitation  
Precipitation 0.00 in - - ()
Sea Level Pressure  
Sea Level Pressure 29.52 in    
Wind  
Wind Speed 11 mph ()    
Max Wind Speed 26 mph    
Max Gust Speed -    
Visibility 2.4 miles    
Events Rain , Snow    
T = Trace of Precipitation, MM = Missing Value Source: Averaged Metar Reports

Daily Weather History Graph

Daily Weather History Graph

Search for Another Location

Airport or City:

Trip Planner

Search our weather history database for the weather conditions in past years. The results will help you decide how hot, cold, wet, or windy it might be!

Date:

Astronomy

Jul. 04, 2013 Rise Set
Actual Time 1:42 AM ADT 12:37 AM ADT
Civil Twilight Sun does not rise Sun does not rise
Nautical Twilight Sun does not rise Sun does not rise
Astronomical Twilight Sun does not rise Sun does not rise
Moon 12:34 AM ADT 8:15 PM ADT
Length of Visible Light 24h 00m
Length of Day
22h 55m
Waning Crescent, 12% of the Moon is Illuminated
Jul 4
Waning Crescent
Jul 8
New
Jul 16
First Quarter
Jul 22
Full
Jul 29
Last Quarter

Hourly Weather History & Observations

Time (ADT) Temp. Windchill Dew Point Humidity Pressure Visibility Wind Dir Wind Speed Gust Speed Precip Events Conditions
12:00 AM 26 °F - - % 29.37 in 0 mi Calm Calm - - Snow Light Snow
12:00 AM 26.6 °F - - N/A% 29.37 in 0.1 mi North - - N/A Snow Light Snow
1:00 AM 24.8 °F 8.7 °F - N/A% 29.39 in 0.1 mi North 26.5 mph - N/A Snow Light Snow
2:00 AM 24.8 °F - - N/A% 29.41 in 0.1 mi North - - N/A Snow Light Snow
2:55 AM 24.8 °F - - N/A% 29.27 in 0.1 mi North - - N/A Rain Light Freezing Rain
3:00 AM 25 °F - - % 29.44 in 0 mi Calm Calm - -  
3:00 AM 24.8 °F - - N/A% 29.44 in 0.1 mi North - - N/A Rain Light Freezing Rain
4:00 AM 26.6 °F 15.2 °F - N/A% 29.48 in 0.0 mi NNE 13.8 mph - N/A Rain Light Freezing Rain
5:00 AM 24.8 °F 13.4 °F - N/A% 29.51 in 0.0 mi North 12.7 mph - N/A Rain Light Freezing Rain
6:00 AM 27 °F - - % 29.52 in 0 mi North 16.1 mph - - Rain Light Freezing Rain
6:00 AM 26.6 °F 14.3 °F - N/A% 29.52 in 0.0 mi North 16.1 mph - N/A Rain Light Freezing Rain
7:00 AM 26.6 °F 13.8 °F - N/A% 29.37 in 0.0 mi North 17.3 mph - N/A Rain Light Freezing Rain
8:00 AM 28.4 °F 15.8 °F - N/A% 29.38 in 0.0 mi North 18.4 mph - N/A Rain Light Freezing Rain
9:00 AM 27 °F - - %  in 0 mi North 17.3 mph - -  
9:00 AM 26.6 °F 13.8 °F - N/A% 29.40 in 0.1 mi North 17.3 mph - N/A Rain Light Freezing Rain
10:00 AM 28.4 °F 16.2 °F - N/A% 29.59 in 0.1 mi North 17.3 mph - N/A Rain Light Freezing Rain
11:00 AM 28.4 °F 17.0 °F - N/A% 29.60 in 0.0 mi North 15.0 mph - N/A Rain Light Freezing Rain
12:00 PM 29 °F - - % 29.61 in 0 mi North 13.8 mph - - Rain Light Freezing Rain
12:00 PM 28.4 °F 17.5 °F - N/A% 29.61 in 0.0 mi North 13.8 mph - N/A Rain Light Freezing Rain
12:43 PM 30.2 °F 19.8 °F - N/A% 29.46 in 0.1 mi NNW 13.8 mph - N/A   Unknown
12:44 PM 30.2 °F 20.8 °F - N/A% 29.46 in 0.1 mi NNW 11.5 mph - N/A Rain Light Freezing Rain
12:48 PM 30.2 °F 21.3 °F - N/A% 29.46 in 0.1 mi North 10.4 mph - N/A   Unknown
1:00 PM 30.2 °F 21.9 °F - N/A% 29.62 in 0.1 mi North 9.2 mph - N/A   Unknown
2:00 PM 30.2 °F 21.9 °F - N/A% 29.63 in 0.1 mi North 9.2 mph - N/A   Unknown
2:24 PM 30.2 °F 20.8 °F - N/A% 29.47 in 0.1 mi North 11.5 mph - N/A Rain Light Freezing Rain
2:35 PM 30.2 °F 20.8 °F - N/A% 29.47 in 0.5 mi North 11.5 mph - N/A Rain Light Freezing Rain
2:37 PM 30.2 °F 20.8 °F - N/A% 29.47 in 1.1 mi North 11.5 mph - N/A Rain Light Freezing Rain
2:41 PM 30.2 °F 21.9 °F - N/A% 29.48 in 0.8 mi North 9.2 mph - N/A Rain Light Freezing Rain
2:42 PM 30.2 °F 21.3 °F - N/A% 29.48 in 0.6 mi North 10.4 mph - N/A Rain Light Freezing Rain
2:45 PM 30.2 °F 22.6 °F - N/A% 29.48 in 0.4 mi North 8.1 mph - N/A Rain Light Freezing Rain
2:55 PM 30.2 °F 21.9 °F - N/A% 29.48 in 1.0 mi North 9.2 mph - N/A Rain Light Freezing Rain
2:57 PM 30.2 °F 21.9 °F - N/A% 29.48 in 2.2 mi North 9.2 mph - N/A Rain Light Freezing Rain
2:59 PM 30.2 °F 21.9 °F - N/A% 29.48 in 5.0 mi North 9.2 mph - N/A Rain Light Freezing Rain
3:00 PM 31 °F - - % 29.65 in 7 mi North 9.2 mph - -  
3:00 PM 30.2 °F 22.6 °F - N/A% 29.65 in 7.0 mi North 8.1 mph - N/A Rain Light Freezing Rain
3:06 PM 30.2 °F 21.9 °F - N/A% 29.48 in 0.4 mi North 9.2 mph - N/A   Unknown
3:09 PM 30.2 °F 21.9 °F - N/A% 29.48 in 0.1 mi North 9.2 mph - N/A   Unknown
3:36 PM 30.2 °F 21.9 °F - N/A% 29.48 in 0.1 mi North 9.2 mph - N/A Rain Light Freezing Rain
3:54 PM 32.0 °F 24.8 °F - N/A% 29.49 in 0.6 mi North 8.1 mph - N/A Rain Light Rain
3:55 PM 32.0 °F 24.8 °F - N/A% 29.49 in 1.0 mi North 8.1 mph - N/A   Unknown
3:56 PM 32.0 °F 24.8 °F - N/A% 29.49 in 2.0 mi NNW 8.1 mph - N/A   Unknown
3:59 PM 32.0 °F 24.8 °F - N/A% 29.49 in 5.0 mi NNW 8.1 mph - N/A   Unknown
4:00 PM 32.0 °F 24.8 °F - N/A% 29.65 in 8.0 mi NNW 8.1 mph - N/A   Unknown
4:07 PM 32.0 °F 28.7 °F - N/A% 29.49 in 0.6 mi NNW 3.5 mph - N/A Rain Light Rain
4:09 PM 32.0 °F 27.5 °F - N/A% 29.49 in 0.4 mi NW 4.6 mph - N/A Rain Light Rain
4:21 PM 32.0 °F 26.4 °F - N/A% 29.50 in 1.0 mi NNW 5.8 mph - N/A Rain Light Rain
4:24 PM 32.0 °F 25.6 °F - N/A% 29.50 in 3.5 mi NNW 6.9 mph - N/A Rain Light Rain
4:33 PM 32.0 °F 27.5 °F - N/A% 29.50 in 1.0 mi NNW 4.6 mph - N/A Rain Light Rain
4:34 PM 32.0 °F 28.7 °F - N/A% 29.50 in 0.4 mi NNW 3.5 mph - N/A Rain Light Rain
4:36 PM 32.0 °F 28.7 °F - N/A% 29.50 in 0.1 mi NNW 3.5 mph - N/A Rain Light Rain
4:51 PM 32.0 °F 24.2 °F - N/A% 29.50 in 1.1 mi NNW 9.2 mph - N/A Rain Light Rain
4:59 PM 32.0 °F 24.8 °F - N/A% 29.50 in 9.0 mi NNW 8.1 mph - N/A Rain Light Rain
5:00 PM 32.0 °F 24.8 °F - N/A% 29.66 in 9.0 mi NNW 8.1 mph - N/A Rain Light Rain
6:00 PM 32 °F - - % 29.67 in 9 mi NW 4.6 mph - - Rain Light Rain
6:00 PM 32.0 °F 27.5 °F - N/A% 29.67 in 9.0 mi NW 4.6 mph - N/A Rain Light Rain
7:00 PM 32.0 °F 27.5 °F - N/A% 29.68 in 9.0 mi WSW 4.6 mph - N/A Rain Light Rain
8:00 PM 32.0 °F 27.5 °F - N/A% 29.68 in 9.0 mi West 4.6 mph - N/A Rain Light Rain
9:00 PM 32 °F - - % 29.68 in 9 mi West 4.6 mph - -  
9:00 PM 32.0 °F 27.5 °F - N/A% 29.68 in 9.0 mi SW 4.6 mph - N/A Rain Light Rain
9:34 PM 32.0 °F 28.7 °F - N/A% 29.53 in 2.6 mi SW 3.5 mph - N/A Rain Light Rain
9:52 PM 32.0 °F 28.7 °F - N/A% 29.53 in 9.0 mi West 3.5 mph - N/A Rain Light Rain
9:58 PM 32.0 °F 27.5 °F - N/A% 29.53 in 2.6 mi WSW 4.6 mph - N/A Rain Light Rain
10:00 PM 32.0 °F 27.5 °F - N/A% 29.69 in 2.1 mi WSW 4.6 mph - N/A Rain Light Rain
10:04 PM 32.0 °F 28.7 °F - N/A% 29.53 in 0.6 mi West 3.5 mph - N/A Rain Light Rain
10:12 PM 32.0 °F - - N/A% 29.53 in 1.4 mi WNW 2.3 mph - N/A Rain Light Rain
10:22 PM 32.0 °F - - N/A% 29.53 in 9.0 mi NW 2.3 mph - N/A Rain Light Rain
11:00 PM 33.8 °F 29.6 °F - N/A% 29.69 in 9.0 mi North 4.6 mph - N/A Rain Light Rain